Time,TemperatureF,DewpointF,PressureIn,WindDirection,WindDirectionDegrees,WindSpeedMPH,WindSpeedGustMPH,Humidity,HourlyPrecipIn,Conditions,Clouds,dailyrainin,SoftwareType,DateUTC
2013-03-05 00:00:00,26.1,20.5,30.06,West,270,3.2,4.6,79,0.00,-SN,,0.00,WeatherDisplay:10.37,2013-03-05 05:00:00,
2013-03-05 00:01:00,26.1,20.5,30.06,West,270,5.4,6.9,79,0.00,-SN,,0.00,WeatherDisplay:10.37,2013-03-05 05:01:00,
2013-03-05 00:03:00,26.1,20.5,30.06,West,270,5.6,6.3,79,0.00,-SN,,0.00,WeatherDisplay:10.37,2013-03-05 05:03:00,
2013-03-05 00:08:00,26.1,20.5,30.06,NNW,338,4.3,5.8,79,0.00,-SN,,0.00,WeatherDisplay:10.37,2013-03-05 05:08:00,
2013-03-05 00:13:00,26.1,20.2,30.06,WSW,248,2.7,4.6,78,0.00,-SN,,0.00,WeatherDisplay:10.37,2013-03-05 05:13:00,
2013-03-05 00:18:00,26.1,20.2,30.07,West,270,3.4,4.6,78,0.00,-SN,,0.00,WeatherDisplay:10.37,2013-03-05 05:18:00,
2013-03-05 00:23:00,26.1,20.2,30.07,SW,225,5.4,6.3,78,0.00,OVC,,0.00,WeatherDisplay:10.37,2013-03-05 05:23:00,
2013-03-05 00:28:00,25.9,19.7,30.06,West,270,3.2,5.8,77,0.00,OVC,,0.00,WeatherDisplay:10.37,2013-03-05 05:28:00,
2013-03-05 00:33:00,25.9,19.7,30.06,NNE,22,2.8,4.2,77,0.00,OVC,,0.00,WeatherDisplay:10.37,2013-03-05 05:33:00,
2013-03-05 00:38:00,25.9,20.0,30.06,West,270,3.4,4.6,78,0.00,OVC,,0.00,WeatherDisplay:10.37,2013-03-05 05:38:00,
2013-03-05 00:43:00,25.9,20.0,30.07,West,270,4.3,5.3,78,0.00,OVC,,0.00,WeatherDisplay:10.37,2013-03-05 05:43:00,
2013-03-05 00:48:00,25.9,20.3,30.07,West,270,2.2,2.7,79,0.00,OVC,,0.00,WeatherDisplay:10.37,2013-03-05 05:48:00,
2013-03-05 00:53:00,25.7,20.1,30.07,NNW,338,3.3,4.2,79,0.00,OVC,,0.00,WeatherDisplay:10.37,2013-03-05 05:53:00,
2013-03-05 00:58:00,25.5,19.9,30.07,WNW,292,4.4,5.8,79,0.00,OVC,,0.00,WeatherDisplay:10.37,2013-03-05 05:58:00,
2013-03-05 01:03:00,25.5,19.9,30.07,SE,135,4.2,5.8,79,0.00,OVC,,0.00,WeatherDisplay:10.37,2013-03-05 06:03:00,
2013-03-05 01:08:00,25.3,20.0,30.07,West,270,3.9,5.8,80,0.00,OVC,,0.00,WeatherDisplay:10.37,2013-03-05 06:08:00,
2013-03-05 01:13:00,25.3,20.0,30.07,West,270,4.0,4.6,80,0.00,OVC,,0.00,WeatherDisplay:10.37,2013-03-05 06:13:00,
2013-03-05 01:18:00,25.3,20.0,30.08,WNW,292,4.8,5.8,80,0.00,OVC,,0.00,WeatherDisplay:10.37,2013-03-05 06:18:00,
2013-03-05 01:23:00,25.2,19.9,30.08,SW,225,4.0,5.8,80,0.00,OVC,,0.00,WeatherDisplay:10.37,2013-03-05 06:23:00,
2013-03-05 01:28:00,25.0,19.7,30.08,WNW,292,2.7,2.7,80,0.00,OVC,,0.00,WeatherDisplay:10.37,2013-03-05 06:28:00,
2013-03-05 01:33:00,25.0,20.0,30.08,West,270,3.3,4.6,81,0.00,OVC,,0.00,WeatherDisplay:10.37,2013-03-05 06:33:00,
2013-03-05 01:38:00,25.0,20.0,30.08,West,270,3.8,6.9,81,0.00,OVC,,0.00,WeatherDisplay:10.37,2013-03-05 06:38:00,
2013-03-05 01:43:00,24.8,19.8,30.08,WSW,248,3.2,3.5,81,0.00,OVC,,0.00,WeatherDisplay:10.37,2013-03-05 06:43:00,
2013-03-05 01:48:00,24.8,19.8,30.08,SW,225,2.4,2.4,81,0.00,OVC,,0.00,WeatherDisplay:10.37,2013-03-05 06:48:00,
2013-03-05 01:53:00,24.8,19.8,30.08,NW,315,2.8,4.6,81,0.00,OVC,,0.00,WeatherDisplay:10.37,2013-03-05 06:53:00,
2013-03-05 01:58:00,24.8,19.8,30.08,West,270,3.7,4.6,81,0.00,OVC,,0.00,WeatherDisplay:10.37,2013-03-05 06:58:00,
2013-03-05 02:03:00,24.8,19.8,30.08,West,270,2.8,3.5,81,0.00,OVC,,0.00,WeatherDisplay:10.37,2013-03-05 07:03:00,
2013-03-05 02:08:00,24.6,19.6,30.08,SSW,202,2.7,2.7,81,0.00,OVC,,0.00,WeatherDisplay:10.37,2013-03-05 07:08:00,
2013-03-05 02:13:00,24.4,19.4,30.08,WSW,248,2.7,3.2,81,0.00,OVC,,0.00,WeatherDisplay:10.37,2013-03-05 07:13:00,
2013-03-05 02:18:00,24.1,19.1,30.08,SSW,202,2.6,3.5,81,0.00,OVC,,0.00,WeatherDisplay:10.37,2013-03-05 07:18:00,
2013-03-05 02:23:00,23.7,18.7,30.08,West,270,2.5,2.7,81,0.00,OVC,,0.00,WeatherDisplay:10.37,2013-03-05 07:23:00,
2013-03-05 02:28:00,23.5,18.8,30.08,West,270,2.3,2.7,82,0.00,OVC,,0.00,WeatherDisplay:10.37,2013-03-05 07:28:00,
2013-03-05 02:33:00,23.2,18.5,30.08,West,270,2.4,3.5,82,0.00,OVC,,0.00,WeatherDisplay:10.37,2013-03-05 07:33:00,
2013-03-05 02:38:00,22.8,18.1,30.08,SW,225,2.7,2.7,82,0.00,OVC,,0.00,WeatherDisplay:10.37,2013-03-05 07:38:00,
2013-03-05 02:43:00,22.5,18.1,30.08,WSW,248,2.2,2.3,83,0.00,OVC,,0.00,WeatherDisplay:10.37,2013-03-05 07:43:00,
2013-03-05 02:48:00,21.9,17.5,30.08,SW,225,1.3,2.3,83,0.00,OVC,,0.00,WeatherDisplay:10.37,2013-03-05 07:48:00,
2013-03-05 02:53:00,21.6,17.5,30.09,SW,225,2.1,2.3,84,0.00,OVC,,0.00,WeatherDisplay:10.37,2013-03-05 07:53:00,
2013-03-05 02:58:00,21.4,17.6,30.09,West,270,1.5,1.7,85,0.00,OVC,,0.00,WeatherDisplay:10.37,2013-03-05 07:58:00,
2013-03-05 03:03:00,21.0,17.2,30.09,SW,225,1.5,1.7,85,0.00,OVC,,0.00,WeatherDisplay:10.37,2013-03-05 08:03:00,
2013-03-05 03:08:00,20.7,17.2,30.09,SW,225,0.0,0.0,86,0.00,OVC,,0.00,WeatherDisplay:10.37,2013-03-05 08:08:00,
2013-03-05 03:13:00,20.5,17.2,30.09,SW,225,1.0,2.3,87,0.00,OVC,,0.00,WeatherDisplay:10.37,2013-03-05 08:13:00,
2013-03-05 03:18:00,20.5,17.2,30.08,WSW,248,0.0,1.1,87,0.00,OVC,,0.00,WeatherDisplay:10.37,2013-03-05 08:18:00,
2013-03-05 03:23:00,19.8,16.6,30.08,West,270,0.0,0.0,87,0.00,OVC,,0.00,WeatherDisplay:10.37,2013-03-05 08:23:00,
2013-03-05 03:28:00,19.2,16.0,30.08,South,180,0.0,0.0,87,0.00,OVC,,0.00,WeatherDisplay:10.37,2013-03-05 08:28:00,
2013-03-05 03:33:00,18.5,15.3,30.08,SSW,202,0.0,0.0,87,0.00,SCT,,0.00,WeatherDisplay:10.37,2013-03-05 08:33:00,
2013-03-05 03:38:00,18.1,14.9,30.08,SSW,202,0.0,0.0,87,0.00,SCT,,0.00,WeatherDisplay:10.37,2013-03-05 08:38:00,
2013-03-05 03:43:00,17.4,14.7,30.08,South,180,0.0,0.0,89,0.00,SCT,,0.00,WeatherDisplay:10.37,2013-03-05 08:43:00,
2013-03-05 03:48:00,17.1,14.4,30.08,West,270,0.0,0.0,89,0.00,SCT,,0.00,WeatherDisplay:10.37,2013-03-05 08:48:00,
2013-03-05 03:53:00,16.9,14.2,30.09,WNW,292,0.0,0.0,89,0.00,SCT,,0.00,WeatherDisplay:10.37,2013-03-05 08:53:00,
2013-03-05 03:58:00,16.5,14.1,30.09,ESE,112,0.0,0.0,90,0.00,SCT,,0.00,WeatherDisplay:10.37,2013-03-05 08:58:00,
2013-03-05 04:03:00,16.3,13.9,30.08,West,270,0.0,0.0,90,0.00,SCT,,0.00,WeatherDisplay:10.37,2013-03-05 09:03:00,
2013-03-05 04:08:00,16.2,14.0,30.08,WSW,248,0.0,0.0,91,0.00,SCT,,0.00,WeatherDisplay:10.37,2013-03-05 09:08:00,
2013-03-05 04:13:00,16.3,14.6,30.08,South,180,0.0,0.0,93,0.00,SCT,,0.00,WeatherDisplay:10.37,2013-03-05 09:13:00,
2013-03-05 04:18:00,16.2,14.5,30.08,WSW,248,0.0,0.0,93,0.00,SCT,,0.00,WeatherDisplay:10.37,2013-03-05 09:18:00,
2013-03-05 04:23:00,16.0,14.3,30.08,WNW,292,0.0,0.0,93,0.00,BKN,,0.00,WeatherDisplay:10.37,2013-03-05 09:23:00,
2013-03-05 04:28:00,15.8,14.4,30.09,South,180,0.0,0.0,94,0.00,BKN,,0.00,WeatherDisplay:10.37,2013-03-05 09:28:00,
2013-03-05 04:33:00,15.6,14.2,30.09,South,180,0.0,0.0,94,0.00,BKN,,0.00,WeatherDisplay:10.37,2013-03-05 09:33:00,
2013-03-05 04:38:00,15.1,13.7,30.09,SSE,158,0.0,0.0,94,0.00,BKN,,0.00,WeatherDisplay:10.37,2013-03-05 09:38:00,
2013-03-05 04:43:00,14.7,13.0,30.09,ESE,112,0.0,0.0,93,0.00,BKN,,0.00,WeatherDisplay:10.37,2013-03-05 09:43:00,
2013-03-05 04:48:00,14.5,12.8,30.09,ESE,112,0.0,0.0,93,0.00,BKN,,0.00,WeatherDisplay:10.37,2013-03-05 09:48:00,
2013-03-05 04:53:00,14.2,12.5,30.08,ESE,112,0.0,0.0,93,0.00,BKN,,0.00,WeatherDisplay:10.37,2013-03-05 09:53:00,
2013-03-05 04:58:00,14.0,12.6,30.08,ESE,112,0.0,0.0,94,0.00,BKN,,0.00,WeatherDisplay:10.37,2013-03-05 09:58:00,
2013-03-05 05:03:00,13.5,12.1,30.09,ESE,112,0.0,0.0,94,0.00,SCT,,0.00,WeatherDisplay:10.37,2013-03-05 10:03:00,
2013-03-05 05:08:00,13.5,12.3,30.09,South,180,0.0,0.0,95,0.00,SCT,,0.00,WeatherDisplay:10.37,2013-03-05 10:08:00,
2013-03-05 05:13:00,13.5,12.3,30.09,ESE,112,0.0,0.0,95,0.00,SCT,,0.00,WeatherDisplay:10.37,2013-03-05 10:13:00,
2013-03-05 05:18:00,13.1,11.9,30.09,South,180,0.0,0.0,95,0.00,SCT,,0.00,WeatherDisplay:10.37,2013-03-05 10:18:00,
2013-03-05 05:23:00,12.6,11.4,30.09,SSW,202,0.0,0.0,95,0.00,SCT,,0.00,WeatherDisplay:10.37,2013-03-05 10:23:00,
2013-03-05 05:28:00,12.2,11.0,30.09,SSW,202,0.0,0.0,95,0.00,SCT,,0.00,WeatherDisplay:10.37,2013-03-05 10:28:00,
2013-03-05 05:33:00,12.0,10.8,30.09,SSW,202,0.0,0.0,95,0.00,SCT,,0.00,WeatherDisplay:10.37,2013-03-05 10:33:00,
2013-03-05 05:38:00,11.8,10.6,30.09,SSW,202,0.0,0.0,95,0.00,SCT,,0.00,WeatherDisplay:10.37,2013-03-05 10:38:00,
2013-03-05 05:43:00,12.2,11.0,30.09,ESE,112,0.0,0.0,95,0.00,SCT,,0.00,WeatherDisplay:10.37,2013-03-05 10:43:00,
2013-03-05 05:48:00,11.8,10.6,30.09,ESE,112,0.0,0.0,95,0.00,SCT,,0.00,WeatherDisplay:10.37,2013-03-05 10:48:00,
2013-03-05 05:53:00,11.7,10.5,30.09,ESE,112,0.0,0.0,95,0.00,SCT,,0.00,WeatherDisplay:10.37,2013-03-05 10:53:00,
2013-03-05 05:58:00,11.7,10.5,30.09,East,90,0.0,0.0,95,0.00,SCT,,0.00,WeatherDisplay:10.37,2013-03-05 10:58:00,
2013-03-05 06:03:00,11.7,10.5,30.09,SE,135,0.0,0.0,95,0.00,SCT,,0.00,WeatherDisplay:10.37,2013-03-05 11:03:00,
2013-03-05 06:08:00,11.5,10.3,30.09,SSE,158,0.0,0.0,95,0.00,SCT,,0.00,WeatherDisplay:10.37,2013-03-05 11:08:00,
2013-03-05 06:13:00,11.7,10.5,30.09,SSW,202,0.0,0.0,95,0.00,BKN,,0.00,WeatherDisplay:10.37,2013-03-05 11:13:00,
2013-03-05 06:18:00,11.5,10.3,30.09,SSE,158,0.0,0.0,95,0.00,BKN,,0.00,WeatherDisplay:10.37,2013-03-05 11:18:00,
2013-03-05 06:23:00,11.1,9.9,30.09,SE,135,0.0,0.0,95,0.00,BKN,,0.00,WeatherDisplay:10.37,2013-03-05 11:23:00,
2013-03-05 06:28:00,11.1,9.9,30.09,ESE,112,0.0,0.0,95,0.00,BKN,,0.00,WeatherDisplay:10.37,2013-03-05 11:28:00,
2013-03-05 06:33:00,10.9,9.7,30.09,ESE,112,0.0,0.0,95,0.00,BKN,,0.00,WeatherDisplay:10.37,2013-03-05 11:33:00,
2013-03-05 06:38:00,10.9,9.7,30.09,SE,135,0.0,0.0,95,0.00,BKN,,0.00,WeatherDisplay:10.37,2013-03-05 11:38:00,
2013-03-05 06:43:00,11.1,9.9,30.08,SSE,158,0.0,0.0,95,0.00,BKN,,0.00,WeatherDisplay:10.37,2013-03-05 11:43:00,
2013-03-05 06:48:00,11.3,10.1,30.08,SSE,158,0.0,0.0,95,0.00,BKN,,0.00,WeatherDisplay:10.37,2013-03-05 11:48:00,
2013-03-05 06:53:00,11.5,10.3,30.08,SSE,158,0.6,1.1,95,0.00,BKN,,0.00,WeatherDisplay:10.37,2013-03-05 11:53:00,
2013-03-05 06:58:00,11.5,10.3,30.08,South,180,0.0,0.0,95,0.00,BKN,,0.00,WeatherDisplay:10.37,2013-03-05 11:58:00,
2013-03-05 07:03:00,11.3,10.1,30.08,South,180,0.0,0.0,95,0.00,FEW,,0.00,WeatherDisplay:10.37,2013-03-05 12:03:00,
2013-03-05 07:08:00,11.5,10.3,30.08,SE,135,0.0,0.0,95,0.00,FEW,,0.00,WeatherDisplay:10.37,2013-03-05 12:08:00,
2013-03-05 07:13:00,12.4,11.2,30.08,SSE,158,0.0,0.0,95,0.00,FEW,,0.00,WeatherDisplay:10.37,2013-03-05 12:13:00,
2013-03-05 07:18:00,13.5,12.3,30.08,SSE,158,0.0,0.0,95,0.00,FEW,,0.00,WeatherDisplay:10.37,2013-03-05 12:18:00,
2013-03-05 07:23:00,14.7,13.5,30.08,ESE,112,0.0,0.0,95,0.00,FEW,,0.00,WeatherDisplay:10.37,2013-03-05 12:23:00,
2013-03-05 07:28:00,16.2,15.0,30.08,SSE,158,0.0,0.0,95,0.00,FEW,,0.00,WeatherDisplay:10.37,2013-03-05 12:28:00,
2013-03-05 07:33:00,17.2,15.8,30.08,SSE,158,0.0,0.0,94,0.00,FEW,,0.00,WeatherDisplay:10.37,2013-03-05 12:33:00,
2013-03-05 07:38:00,18.5,16.8,30.08,SSE,158,0.0,0.0,93,0.00,FEW,,0.00,WeatherDisplay:10.37,2013-03-05 12:38:00,
2013-03-05 07:43:00,19.8,17.9,30.08,SSE,158,0.0,0.0,92,0.00,FEW,,0.00,WeatherDisplay:10.37,2013-03-05 12:43:00,
2013-03-05 07:48:00,21.7,19.5,30.08,SE,135,0.0,0.0,91,0.00,FEW,,0.00,WeatherDisplay:10.37,2013-03-05 12:48:00,
2013-03-05 07:53:00,23.7,19.6,30.08,ESE,112,0.0,0.0,84,0.00,FEW,,0.00,WeatherDisplay:10.37,2013-03-05 12:53:00,
2013-03-05 07:58:00,20.7,16.6,30.08,South,180,0.0,0.0,84,0.00,FEW,,0.00,WeatherDisplay:10.37,2013-03-05 12:58:00,
2013-03-05 08:03:00,22.1,17.4,30.09,NW,315,0.0,0.0,82,0.00,FEW,,0.00,WeatherDisplay:10.37,2013-03-05 13:03:00,
2013-03-05 08:08:00,22.6,17.1,30.09,ESE,112,0.0,0.0,79,0.00,FEW,,0.00,WeatherDisplay:10.37,2013-03-05 13:08:00,
2013-03-05 08:13:00,24.8,18.6,30.09,SSE,158,0.0,0.0,77,0.00,FEW,,0.00,WeatherDisplay:10.37,2013-03-05 13:13:00,
2013-03-05 08:18:00,23.7,18.1,30.08,SE,135,0.0,0.0,79,0.00,FEW,,0.00,WeatherDisplay:10.37,2013-03-05 13:18:00,
2013-03-05 08:23:00,25.0,18.8,30.08,West,270,0.0,0.0,77,0.00,FEW,,0.00,WeatherDisplay:10.37,2013-03-05 13:23:00,
2013-03-05 08:28:00,26.4,19.2,30.08,ESE,112,0.3,1.1,74,0.00,FEW,,0.00,WeatherDisplay:10.37,2013-03-05 13:28:00,
2013-03-05 08:33:00,25.3,18.8,30.08,SSE,158,2.0,2.3,76,0.00,FEW,,0.00,WeatherDisplay:10.37,2013-03-05 13:33:00,
2013-03-05 08:38:00,25.9,18.4,30.08,ESE,112,2.2,2.3,73,0.00,FEW,,0.00,WeatherDisplay:10.37,2013-03-05 13:38:00,
2013-03-05 08:43:00,25.2,18.7,30.08,ESE,112,2.6,2.7,76,0.00,FEW,,0.00,WeatherDisplay:10.37,2013-03-05 13:43:00,
2013-03-05 08:48:00,24.4,18.5,30.08,East,90,2.1,2.3,78,0.00,FEW,,0.00,WeatherDisplay:10.37,2013-03-05 13:48:00,
2013-03-05 08:53:00,27.1,18.9,30.08,SSE,158,2.3,2.7,71,0.00,FEW,,0.00,WeatherDisplay:10.37,2013-03-05 13:53:00,
2013-03-05 08:58:00,27.5,19.7,30.08,ESE,112,1.3,1.7,72,0.00,FEW,,0.00,WeatherDisplay:10.37,2013-03-05 13:58:00,
2013-03-05 09:03:00,26.8,19.0,30.07,SSE,158,2.8,3.5,72,0.00,FEW,,0.00,WeatherDisplay:10.37,2013-03-05 14:03:00,
2013-03-05 09:08:00,26.8,18.7,30.07,WSW,248,0.0,1.1,71,0.00,FEW,,0.00,WeatherDisplay:10.37,2013-03-05 14:08:00,
2013-03-05 09:13:00,26.1,18.9,30.07,South,180,0.0,0.0,74,0.00,SCT,,0.00,WeatherDisplay:10.37,2013-03-05 14:13:00,
2013-03-05 09:18:00,30.7,20.7,30.08,SSW,202,3.4,4.6,66,0.00,SCT,,0.00,WeatherDisplay:10.37,2013-03-05 14:18:00,
2013-03-05 09:23:00,27.7,19.5,30.08,SE,135,3.1,3.5,71,0.00,SCT,,0.00,WeatherDisplay:10.37,2013-03-05 14:23:00,
2013-03-05 09:28:00,28.0,19.5,30.08,South,180,1.1,2.3,70,0.00,SCT,,0.00,WeatherDisplay:10.37,2013-03-05 14:28:00,
2013-03-05 09:33:00,27.1,18.6,30.08,SSE,158,0.0,0.0,70,0.00,SCT,,0.00,WeatherDisplay:10.37,2013-03-05 14:33:00,
2013-03-05 09:38:00,29.8,19.5,30.08,ESE,112,1.5,2.3,65,0.00,SCT,,0.01,WeatherDisplay:10.37,2013-03-05 14:38:00,
2013-03-05 09:43:00,28.0,18.5,30.08,South,180,0.0,1.1,67,0.01,RA,,0.01,WeatherDisplay:10.37,2013-03-05 14:43:00,
2013-03-05 09:48:00,29.5,19.5,30.08,ESE,112,0.1,2.7,66,0.01,RA,,0.01,WeatherDisplay:10.37,2013-03-05 14:48:00,
2013-03-05 09:53:00,30.7,20.3,30.08,South,180,2.5,3.5,65,0.01,BKN,,0.01,WeatherDisplay:10.37,2013-03-05 14:53:00,
2013-03-05 09:58:00,29.1,19.5,30.08,West,270,0.0,0.0,67,0.01,BKN,,0.01,WeatherDisplay:10.37,2013-03-05 14:58:00,
2013-03-05 10:03:00,31.3,19.8,30.07,ESE,112,1.6,2.3,62,0.02,RA,,0.02,WeatherDisplay:10.37,2013-03-05 15:03:00,
2013-03-05 10:08:00,31.3,20.5,30.07,West,270,3.5,3.7,64,0.02,RA,,0.02,WeatherDisplay:10.37,2013-03-05 15:08:00,
2013-03-05 10:13:00,27.9,18.7,30.07,ESE,112,0.0,1.1,68,0.02,BKN,,0.02,WeatherDisplay:10.37,2013-03-05 15:13:00,
2013-03-05 10:18:00,28.6,19.0,30.06,WSW,248,1.3,2.2,67,0.02,BKN,,0.02,WeatherDisplay:10.37,2013-03-05 15:18:00,
2013-03-05 10:23:00,28.2,17.9,30.06,South,180,2.1,2.3,65,0.02,BKN,,0.02,WeatherDisplay:10.37,2013-03-05 15:23:00,
2013-03-05 10:28:00,30.6,19.5,30.07,South,180,1.0,2.7,63,0.02,BKN,,0.02,WeatherDisplay:10.37,2013-03-05 15:28:00,
2013-03-05 10:33:00,30.0,18.2,30.07,WNW,292,2.2,2.7,61,0.02,BKN,,0.02,WeatherDisplay:10.37,2013-03-05 15:33:00,
2013-03-05 10:38:00,31.5,19.6,30.07,NW,315,0.0,0.0,61,0.03,RA,,0.03,WeatherDisplay:10.37,2013-03-05 15:38:00,
2013-03-05 10:43:00,30.6,19.1,30.06,South,180,3.1,4.6,62,0.02,RA,,0.03,WeatherDisplay:10.37,2013-03-05 15:43:00,
2013-03-05 10:48:00,30.6,19.1,30.06,SSE,158,3.0,4.6,62,0.02,BKN,,0.03,WeatherDisplay:10.37,2013-03-05 15:48:00,
2013-03-05 10:53:00,31.5,20.0,30.06,SSW,202,1.7,2.3,62,0.02,BKN,,0.03,WeatherDisplay:10.37,2013-03-05 15:53:00,
2013-03-05 10:58:00,33.3,20.1,30.06,South,180,2.4,3.7,58,0.03,RA,,0.04,WeatherDisplay:10.37,2013-03-05 15:58:00,
2013-03-05 11:03:00,31.6,19.3,30.05,West,270,2.8,3.5,60,0.02,RA,,0.04,WeatherDisplay:10.37,2013-03-05 16:03:00,
2013-03-05 11:08:00,31.3,19.0,30.05,West,270,2.9,3.5,60,0.02,BKN,,0.04,WeatherDisplay:10.37,2013-03-05 16:08:00,
2013-03-05 11:13:00,32.7,19.1,30.05,SE,135,1.8,2.3,57,0.02,BKN,,0.04,WeatherDisplay:10.37,2013-03-05 16:13:00,
2013-03-05 11:18:00,31.5,19.2,30.05,ESE,112,4.6,5.8,60,0.02,BKN,,0.04,WeatherDisplay:10.37,2013-03-05 16:18:00,
2013-03-05 11:23:00,32.5,19.3,30.05,WSW,248,2.3,3.5,58,0.02,BKN,,0.04,WeatherDisplay:10.37,2013-03-05 16:23:00,
2013-03-05 11:28:00,32.7,19.9,30.04,South,180,3.2,4.6,59,0.02,BKN,,0.04,WeatherDisplay:10.37,2013-03-05 16:28:00,
2013-03-05 11:33:00,31.3,19.0,30.04,ESE,112,3.2,4.6,60,0.02,BKN,,0.04,WeatherDisplay:10.37,2013-03-05 16:33:00,
2013-03-05 11:38:00,32.7,19.9,30.04,North,360,1.7,1.7,59,0.01,BKN,,0.04,WeatherDisplay:10.37,2013-03-05 16:38:00,
2013-03-05 11:43:00,32.5,19.3,30.04,East,90,0.9,3.2,58,0.01,BKN,,0.04,WeatherDisplay:10.37,2013-03-05 16:43:00,
2013-03-05 11:48:00,32.7,19.5,30.04,SE,135,3.5,6.3,58,0.01,BKN,,0.04,WeatherDisplay:10.37,2013-03-05 16:48:00,
2013-03-05 11:53:00,33.8,20.2,30.04,NNW,338,0.6,2.3,57,0.01,BKN,,0.04,WeatherDisplay:10.37,2013-03-05 16:53:00,
2013-03-05 11:58:00,32.0,19.7,30.04,WSW,248,1.8,2.3,60,0.00,BKN,,0.04,WeatherDisplay:10.37,2013-03-05 16:58:00,
2013-03-05 12:03:00,33.8,20.6,30.04,WNW,292,2.0,3.2,58,0.00,BKN,,0.04,WeatherDisplay:10.37,2013-03-05 17:03:00,
2013-03-05 12:08:00,33.3,20.1,30.03,South,180,3.0,3.5,58,0.00,BKN,,0.04,WeatherDisplay:10.37,2013-03-05 17:08:00,
2013-03-05 12:13:00,34.3,21.0,30.03,South,180,3.2,4.6,58,0.00,BKN,,0.04,WeatherDisplay:10.37,2013-03-05 17:13:00,
2013-03-05 12:18:00,32.7,19.9,30.04,SE,135,2.5,2.7,59,0.00,BKN,,0.04,WeatherDisplay:10.37,2013-03-05 17:18:00,
2013-03-05 12:23:00,33.8,19.7,30.04,ESE,112,2.3,4.2,56,0.00,BKN,,0.04,WeatherDisplay:10.37,2013-03-05 17:23:00,
2013-03-05 12:28:00,32.7,19.9,30.04,ESE,112,3.7,4.6,59,0.00,BKN,,0.04,WeatherDisplay:10.37,2013-03-05 17:28:00,
2013-03-05 12:33:00,33.6,20.8,30.04,WSW,248,2.2,3.7,59,0.00,BKN,,0.04,WeatherDisplay:10.37,2013-03-05 17:33:00,
2013-03-05 12:38:00,32.4,20.0,30.04,WSW,248,2.3,3.7,60,0.00,BKN,,0.04,WeatherDisplay:10.37,2013-03-05 17:38:00,
2013-03-05 12:43:00,35.1,20.5,30.04,East,90,1.2,3.5,55,0.00,BKN,,0.04,WeatherDisplay:10.37,2013-03-05 17:43:00,
2013-03-05 12:48:00,34.7,20.6,30.04,NNW,338,1.2,1.7,56,0.00,BKN,,0.04,WeatherDisplay:10.37,2013-03-05 17:48:00,
2013-03-05 12:53:00,34.0,20.8,30.04,West,270,2.0,3.5,58,0.00,BKN,,0.04,WeatherDisplay:10.37,2013-03-05 17:53:00,
2013-03-05 12:58:00,34.2,20.9,30.04,NE,45,3.0,4.6,58,0.00,BKN,,0.04,WeatherDisplay:10.37,2013-03-05 17:58:00,
2013-03-05 13:03:00,34.2,20.5,30.03,ENE,68,2.8,2.8,57,0.00,BKN,,0.04,WeatherDisplay:10.37,2013-03-05 18:03:00,
2013-03-05 13:08:00,34.5,20.4,30.03,East,90,2.6,3.7,56,0.00,BKN,,0.04,WeatherDisplay:10.37,2013-03-05 18:08:00,
2013-03-05 13:13:00,35.2,20.6,30.03,WNW,292,2.8,4.6,55,0.00,BKN,,0.04,WeatherDisplay:10.37,2013-03-05 18:13:00,
2013-03-05 13:18:00,35.1,21.0,30.03,NW,315,2.4,5.3,56,0.00,BKN,,0.04,WeatherDisplay:10.37,2013-03-05 18:18:00,
2013-03-05 13:23:00,34.3,20.6,30.03,NW,315,4.2,4.6,57,0.00,BKN,,0.04,WeatherDisplay:10.37,2013-03-05 18:23:00,
2013-03-05 13:28:00,36.0,20.9,30.02,WNW,292,3.9,4.6,54,0.00,BKN,,0.04,WeatherDisplay:10.37,2013-03-05 18:28:00,
2013-03-05 13:33:00,35.4,20.8,30.02,West,270,1.4,4.6,55,0.00,BKN,,0.04,WeatherDisplay:10.37,2013-03-05 18:33:00,
2013-03-05 13:38:00,36.9,21.8,30.02,NNW,338,2.6,6.3,54,0.00,BKN,,0.04,WeatherDisplay:10.37,2013-03-05 18:38:00,
2013-03-05 13:43:00,37.0,21.4,30.02,SE,135,5.3,5.8,53,0.00,BKN,,0.04,WeatherDisplay:10.37,2013-03-05 18:43:00,
2013-03-05 13:48:00,35.4,21.2,30.02,ENE,68,3.6,4.6,56,0.00,BKN,,0.04,WeatherDisplay:10.37,2013-03-05 18:48:00,
2013-03-05 13:53:00,35.4,21.2,30.01,ENE,68,4.1,4.6,56,0.00,BKN,,0.04,WeatherDisplay:10.37,2013-03-05 18:53:00,
2013-03-05 13:58:00,34.9,20.8,30.01,SSE,158,3.2,4.6,56,0.00,BKN,,0.04,WeatherDisplay:10.37,2013-03-05 18:58:00,
2013-03-05 14:04:00,35.2,21.5,30.00,NE,45,4.6,5.8,57,0.00,BKN,,0.04,WeatherDisplay:10.37,2013-03-05 19:04:00,
2013-03-05 14:09:00,35.2,21.1,30.00,East,90,6.3,8.1,56,0.00,BKN,,0.04,WeatherDisplay:10.37,2013-03-05 19:09:00,
2013-03-05 14:14:00,34.5,20.8,30.00,SE,135,4.3,4.6,57,0.00,BKN,,0.04,WeatherDisplay:10.37,2013-03-05 19:14:00,
2013-03-05 14:19:00,35.1,21.0,30.00,ENE,68,4.6,6.9,56,0.00,BKN,,0.04,WeatherDisplay:10.37,2013-03-05 19:19:00,
2013-03-05 14:24:00,35.2,21.5,30.00,East,90,6.2,8.1,57,0.00,BKN,,0.04,WeatherDisplay:10.37,2013-03-05 19:24:00,
2013-03-05 14:29:00,35.8,21.6,30.00,East,90,8.0,10.4,56,0.00,BKN,,0.04,WeatherDisplay:10.37,2013-03-05 19:29:00,
2013-03-05 14:34:00,34.9,21.2,30.00,ESE,112,5.3,8.1,57,0.00,BKN,,0.04,WeatherDisplay:10.37,2013-03-05 19:34:00,
2013-03-05 14:39:00,35.2,21.5,29.99,East,90,3.3,3.7,57,0.00,BKN,,0.04,WeatherDisplay:10.37,2013-03-05 19:39:00,
2013-03-05 14:44:00,35.4,21.7,29.99,South,180,4.8,5.8,57,0.00,BKN,,0.04,WeatherDisplay:10.37,2013-03-05 19:44:00,
2013-03-05 14:49:00,35.8,22.0,29.99,East,90,6.8,9.2,57,0.00,BKN,,0.04,WeatherDisplay:10.37,2013-03-05 19:49:00,
2013-03-05 14:54:00,35.6,21.9,29.99,East,90,5.7,8.1,57,0.00,BKN,,0.04,WeatherDisplay:10.37,2013-03-05 19:54:00,
2013-03-05 14:59:00,35.4,22.1,29.99,South,180,3.8,4.6,58,0.00,BKN,,0.04,WeatherDisplay:10.37,2013-03-05 19:59:00,
2013-03-05 15:04:00,35.4,21.7,29.99,ESE,112,6.8,9.2,57,0.00,BKN,,0.04,WeatherDisplay:10.37,2013-03-05 20:04:00,
2013-03-05 15:09:00,35.4,22.1,29.99,NE,45,8.2,9.2,58,0.00,BKN,,0.04,WeatherDisplay:10.37,2013-03-05 20:09:00,
2013-03-05 15:14:00,35.6,22.3,29.99,NE,45,7.2,8.1,58,0.00,SCT,,0.04,WeatherDisplay:10.37,2013-03-05 20:14:00,
2013-03-05 15:19:00,35.2,21.9,29.98,ESE,112,7.3,7.3,58,0.00,SCT,,0.04,WeatherDisplay:10.37,2013-03-05 20:19:00,
2013-03-05 15:24:00,35.1,22.6,29.98,ESE,112,7.4,8.3,60,0.00,SCT,,0.04,WeatherDisplay:10.37,2013-03-05 20:24:00,
2013-03-05 15:29:00,35.2,22.3,29.97,ESE,112,7.8,9.2,59,0.00,SCT,,0.04,WeatherDisplay:10.37,2013-03-05 20:29:00,
2013-03-05 15:34:00,35.2,22.3,29.97,East,90,6.3,6.3,59,0.00,SCT,,0.04,WeatherDisplay:10.37,2013-03-05 20:34:00,
2013-03-05 15:39:00,34.9,22.4,29.96,ESE,112,6.1,8.1,60,0.00,SCT,,0.04,WeatherDisplay:10.37,2013-03-05 20:39:00,
2013-03-05 15:44:00,34.9,22.4,29.96,NNE,22,7.3,8.1,60,0.00,SCT,,0.04,WeatherDisplay:10.37,2013-03-05 20:44:00,
2013-03-05 15:49:00,35.4,22.9,29.96,ESE,112,5.7,11.5,60,0.00,SCT,,0.04,WeatherDisplay:10.37,2013-03-05 20:49:00,
2013-03-05 15:54:00,35.1,22.6,29.96,ESE,112,6.5,8.1,60,0.00,SCT,,0.04,WeatherDisplay:10.37,2013-03-05 20:54:00,
2013-03-05 15:59:00,35.4,22.9,29.96,ESE,112,5.6,6.9,60,0.00,SCT,,0.04,WeatherDisplay:10.37,2013-03-05 20:59:00,
2013-03-05 16:04:00,34.9,22.4,29.96,ENE,68,5.2,9.2,60,0.00,SCT,,0.04,WeatherDisplay:10.37,2013-03-05 21:04:00,
2013-03-05 16:09:00,35.2,22.7,29.96,ESE,112,5.6,9.2,60,0.00,SCT,,0.04,WeatherDisplay:10.37,2013-03-05 21:09:00,
2013-03-05 16:14:00,35.1,22.6,29.96,ESE,112,7.8,11.5,60,0.00,SCT,,0.04,WeatherDisplay:10.37,2013-03-05 21:14:00,
2013-03-05 16:19:00,34.5,22.4,29.96,ESE,112,6.1,6.3,61,0.00,SCT,,0.04,WeatherDisplay:10.37,2013-03-05 21:19:00,
2013-03-05 16:24:00,34.9,22.8,29.96,SE,135,8.1,8.1,61,0.00,SCT,,0.04,WeatherDisplay:10.37,2013-03-05 21:24:00,
2013-03-05 16:29:00,34.7,22.6,29.95,ESE,112,5.6,6.3,61,0.00,SCT,,0.04,WeatherDisplay:10.37,2013-03-05 21:29:00,
2013-03-05 16:34:00,34.7,22.6,29.95,East,90,7.3,7.3,61,0.00,SCT,,0.04,WeatherDisplay:10.37,2013-03-05 21:34:00,
2013-03-05 16:39:00,34.5,22.4,29.95,ESE,112,9.7,11.5,61,0.00,SCT,,0.04,WeatherDisplay:10.37,2013-03-05 21:39:00,
2013-03-05 16:44:00,34.7,22.6,29.95,ESE,112,6.3,10.4,61,0.00,SCT,,0.04,WeatherDisplay:10.37,2013-03-05 21:44:00,
2013-03-05 16:49:00,34.5,22.4,29.95,ESE,112,11.2,11.5,61,0.00,SCT,,0.04,WeatherDisplay:10.37,2013-03-05 21:49:00,
2013-03-05 16:54:00,34.0,22.3,29.95,ESE,112,8.9,10.4,62,0.00,SCT,,0.04,WeatherDisplay:10.37,2013-03-05 21:54:00,
2013-03-05 16:59:00,33.6,22.0,29.95,ESE,112,10.2,10.4,62,0.00,SCT,,0.04,WeatherDisplay:10.37,2013-03-05 21:59:00,
2013-03-05 17:04:00,33.4,22.1,29.95,NE,45,9.1,10.4,63,0.00,SCT,,0.04,WeatherDisplay:10.37,2013-03-05 22:04:00,
2013-03-05 17:09:00,33.3,22.4,29.95,ESE,112,9.4,10.4,64,0.00,SCT,,0.04,WeatherDisplay:10.37,2013-03-05 22:09:00,
2013-03-05 17:14:00,33.1,22.6,29.95,SE,135,7.6,9.9,65,0.00,SCT,,0.04,WeatherDisplay:10.37,2013-03-05 22:14:00,
2013-03-05 17:19:00,32.7,22.2,29.94,ESE,112,8.4,11.5,65,0.00,SCT,,0.04,WeatherDisplay:10.37,2013-03-05 22:19:00,
2013-03-05 17:24:00,32.7,22.2,29.94,ENE,68,7.2,8.1,65,0.00,SCT,,0.04,WeatherDisplay:10.37,2013-03-05 22:24:00,
2013-03-05 17:29:00,32.5,22.4,29.95,ENE,68,7.8,9.2,66,0.00,SCT,,0.04,WeatherDisplay:10.37,2013-03-05 22:29:00,
2013-03-05 17:34:00,32.4,22.3,29.95,East,90,6.9,9.2,66,0.00,SCT,,0.04,WeatherDisplay:10.37,2013-03-05 22:34:00,
2013-03-05 17:39:00,32.4,22.3,29.95,ENE,68,7.2,9.2,66,0.00,SCT,,0.04,WeatherDisplay:10.37,2013-03-05 22:39:00,
2013-03-05 17:44:00,32.2,22.5,29.95,ENE,68,6.3,7.3,67,0.00,SCT,,0.04,WeatherDisplay:10.37,2013-03-05 22:44:00,
2013-03-05 17:49:00,31.8,22.4,29.95,ESE,112,6.0,6.9,68,0.00,SCT,,0.04,WeatherDisplay:10.37,2013-03-05 22:49:00,
2013-03-05 17:54:00,31.5,22.1,29.96,SSE,158,6.4,8.1,68,0.00,SCT,,0.04,WeatherDisplay:10.37,2013-03-05 22:54:00,
2013-03-05 17:59:00,31.1,22.1,29.96,ENE,68,5.8,5.8,69,0.00,SCT,,0.04,WeatherDisplay:10.37,2013-03-05 22:59:00,
2013-03-05 18:04:00,30.7,22.1,29.96,ESE,112,9.0,11.5,70,0.00,SCT,,0.04,WeatherDisplay:10.37,2013-03-05 23:04:00,
2013-03-05 18:09:00,30.6,22.0,29.96,ESE,112,6.8,10.4,70,0.00,SCT,,0.04,WeatherDisplay:10.37,2013-03-05 23:09:00,
2013-03-05 18:14:00,30.4,21.8,29.96,East,90,9.9,10.4,70,0.00,SCT,,0.04,WeatherDisplay:10.37,2013-03-05 23:14:00,
2013-03-05 18:19:00,30.2,21.9,29.96,ESE,112,8.6,10.4,71,0.00,SCT,,0.04,WeatherDisplay:10.37,2013-03-05 23:19:00,
2013-03-05 18:24:00,30.0,22.1,29.96,ESE,112,7.0,8.3,72,0.00,SCT,,0.04,WeatherDisplay:10.37,2013-03-05 23:24:00,
2013-03-05 18:29:00,29.8,21.9,29.96,SE,135,7.6,9.4,72,0.00,SCT,,0.04,WeatherDisplay:10.37,2013-03-05 23:29:00,
2013-03-05 18:34:00,29.8,21.9,29.96,SE,135,9.4,9.4,72,0.00,SCT,,0.04,WeatherDisplay:10.37,2013-03-05 23:34:00,
2013-03-05 18:39:00,29.5,21.9,29.95,ESE,112,6.5,8.1,73,0.00,SCT,,0.04,WeatherDisplay:10.37,2013-03-05 23:39:00,
2013-03-05 18:44:00,29.5,21.9,29.95,ESE,112,7.3,7.3,73,0.00,SCT,,0.04,WeatherDisplay:10.37,2013-03-05 23:44:00,
2013-03-05 18:49:00,29.1,21.8,29.95,ESE,112,5.8,8.1,74,0.00,SCT,,0.04,WeatherDisplay:10.37,2013-03-05 23:49:00,
2013-03-05 18:54:00,28.9,22.0,29.95,ESE,112,5.5,6.9,75,0.00,SCT,,0.04,WeatherDisplay:10.37,2013-03-05 23:54:00,
2013-03-05 18:59:00,28.8,21.9,29.95,East,90,4.8,6.9,75,0.00,SCT,,0.04,WeatherDisplay:10.37,2013-03-05 23:59:00,
2013-03-05 19:04:00,28.8,21.9,29.95,SSE,158,5.2,5.8,75,0.00,SCT,,0.04,WeatherDisplay:10.37,2013-03-06 00:04:00,
2013-03-05 19:09:00,28.8,21.9,29.95,East,90,9.8,11.5,75,0.00,SCT,,0.04,WeatherDisplay:10.37,2013-03-06 00:09:00,
2013-03-05 19:14:00,28.8,21.9,29.95,East,90,6.0,6.9,75,0.00,FEW,,0.04,WeatherDisplay:10.37,2013-03-06 00:14:00,
2013-03-05 19:19:00,28.8,21.9,29.95,East,90,5.5,7.8,75,0.00,FEW,,0.04,WeatherDisplay:10.37,2013-03-06 00:19:00,
2013-03-05 19:24:00,28.6,22.0,29.95,ENE,68,5.0,5.8,76,0.00,FEW,,0.04,WeatherDisplay:10.37,2013-03-06 00:24:00,
2013-03-05 19:29:00,28.4,22.1,29.95,ESE,112,7.6,9.2,77,0.00,FEW,,0.04,WeatherDisplay:10.37,2013-03-06 00:29:00,
2013-03-05 19:34:00,28.2,22.2,29.95,ENE,68,8.7,10.4,78,0.00,FEW,,0.04,WeatherDisplay:10.37,2013-03-06 00:34:00,
2013-03-05 19:39:00,28.2,22.5,29.94,ESE,112,6.4,8.1,79,0.00,FEW,,0.04,WeatherDisplay:10.37,2013-03-06 00:39:00,
2013-03-05 19:44:00,28.0,22.3,29.94,ESE,112,9.3,10.4,79,0.00,FEW,,0.04,WeatherDisplay:10.37,2013-03-06 00:44:00,
2013-03-05 19:49:00,27.9,22.5,29.94,ESE,112,5.8,9.2,80,0.00,FEW,,0.04,WeatherDisplay:10.37,2013-03-06 00:49:00,
2013-03-05 19:54:00,27.7,22.3,29.94,ESE,112,6.8,8.1,80,0.00,FEW,,0.04,WeatherDisplay:10.37,2013-03-06 00:54:00,
2013-03-05 19:59:00,27.7,22.3,29.94,ESE,112,4.7,5.8,80,0.00,FEW,,0.04,WeatherDisplay:10.37,2013-03-06 00:59:00,
2013-03-05 20:04:00,27.5,22.1,29.94,East,90,7.8,9.2,80,0.00,FEW,,0.04,WeatherDisplay:10.37,2013-03-06 01:04:00,
2013-03-05 20:09:00,27.5,22.1,29.94,ESE,112,6.8,9.2,80,0.00,FEW,,0.04,WeatherDisplay:10.37,2013-03-06 01:09:00,
2013-03-05 20:14:00,27.5,22.1,29.94,ESE,112,8.1,12.7,80,0.00,FEW,,0.04,WeatherDisplay:10.37,2013-03-06 01:14:00,
2013-03-05 20:19:00,27.3,21.9,29.94,NE,45,5.8,8.8,80,0.00,FEW,,0.04,WeatherDisplay:10.37,2013-03-06 01:19:00,
2013-03-05 20:24:00,27.3,21.9,29.94,ESE,112,5.8,6.9,80,0.00,FEW,,0.04,WeatherDisplay:10.37,2013-03-06 01:24:00,
2013-03-05 20:29:00,27.3,21.9,29.94,ESE,112,5.5,6.9,80,0.00,FEW,,0.04,WeatherDisplay:10.37,2013-03-06 01:29:00,
2013-03-05 20:34:00,27.1,21.7,29.94,ESE,112,6.7,6.9,80,0.00,FEW,,0.04,WeatherDisplay:10.37,2013-03-06 01:34:00,
2013-03-05 20:39:00,27.3,21.9,29.94,ESE,112,7.3,9.4,80,0.00,FEW,,0.04,WeatherDisplay:10.37,2013-03-06 01:39:00,
2013-03-05 20:44:00,27.3,21.9,29.94,East,90,7.1,8.1,80,0.00,FEW,,0.04,WeatherDisplay:10.37,2013-03-06 01:44:00,
2013-03-05 20:49:00,27.1,21.7,29.94,ESE,112,8.4,10.4,80,0.00,FEW,,0.04,WeatherDisplay:10.37,2013-03-06 01:49:00,
2013-03-05 20:54:00,27.1,21.7,29.94,East,90,7.5,8.3,80,0.00,FEW,,0.04,WeatherDisplay:10.37,2013-03-06 01:54:00,
2013-03-05 20:59:00,27.1,22.0,29.94,ESE,112,5.7,8.1,81,0.00,FEW,,0.04,WeatherDisplay:10.37,2013-03-06 01:59:00,
2013-03-05 21:04:00,27.0,21.9,29.93,East,90,6.5,8.1,81,0.00,FEW,,0.04,WeatherDisplay:10.37,2013-03-06 02:04:00,
2013-03-05 21:09:00,27.0,21.9,29.93,ESE,112,8.0,10.4,81,0.00,FEW,,0.04,WeatherDisplay:10.37,2013-03-06 02:09:00,
2013-03-05 21:14:00,26.8,21.8,29.93,ESE,112,7.9,9.4,81,0.00,FEW,,0.04,WeatherDisplay:10.37,2013-03-06 02:14:00,
2013-03-05 21:19:00,26.8,21.8,29.92,ESE,112,7.1,8.3,81,0.00,FEW,,0.04,WeatherDisplay:10.37,2013-03-06 02:19:00,
2013-03-05 21:24:00,26.8,21.8,29.92,ESE,112,7.8,10.4,81,0.00,SCT,,0.04,WeatherDisplay:10.37,2013-03-06 02:24:00,
2013-03-05 21:29:00,26.8,21.8,29.93,SE,135,7.2,8.1,81,0.00,SCT,,0.04,WeatherDisplay:10.37,2013-03-06 02:29:00,
2013-03-05 21:34:00,26.6,21.6,29.93,ESE,112,7.5,9.2,81,0.00,SCT,,0.04,WeatherDisplay:10.37,2013-03-06 02:34:00,
2013-03-05 21:39:00,26.6,21.8,29.93,ESE,112,6.4,7.3,82,0.00,SCT,,0.04,WeatherDisplay:10.37,2013-03-06 02:39:00,
2013-03-05 21:44:00,26.6,21.8,29.93,ESE,112,6.9,8.1,82,0.00,SCT,,0.04,WeatherDisplay:10.37,2013-03-06 02:44:00,
2013-03-05 21:49:00,26.6,21.8,29.93,ESE,112,6.4,6.9,82,0.00,SCT,,0.04,WeatherDisplay:10.37,2013-03-06 02:49:00,
2013-03-05 21:54:00,26.6,21.8,29.93,ESE,112,7.7,8.1,82,0.00,SCT,,0.04,WeatherDisplay:10.37,2013-03-06 02:54:00,
2013-03-05 21:59:00,26.6,21.8,29.93,ESE,112,6.0,6.3,82,0.00,SCT,,0.04,WeatherDisplay:10.37,2013-03-06 02:59:00,
2013-03-05 22:04:00,26.6,21.8,29.93,ESE,112,7.0,9.4,82,0.00,SCT,,0.04,WeatherDisplay:10.37,2013-03-06 03:04:00,
2013-03-05 22:09:00,26.6,21.8,29.93,East,90,5.5,8.1,82,0.00,SCT,,0.04,WeatherDisplay:10.37,2013-03-06 03:09:00,
2013-03-05 22:14:00,26.6,21.8,29.93,ESE,112,5.8,8.3,82,0.00,SCT,,0.04,WeatherDisplay:10.37,2013-03-06 03:14:00,
2013-03-05 22:19:00,26.4,21.7,29.93,SE,135,5.8,9.2,82,0.00,SCT,,0.04,WeatherDisplay:10.37,2013-03-06 03:19:00,
2013-03-05 22:24:00,26.2,21.7,29.93,East,90,5.2,8.1,83,0.00,SCT,,0.04,WeatherDisplay:10.37,2013-03-06 03:24:00,
2013-03-05 22:29:00,26.2,21.7,29.92,ESE,112,8.4,9.2,83,0.00,SCT,,0.04,WeatherDisplay:10.37,2013-03-06 03:29:00,
2013-03-05 22:34:00,26.2,21.7,29.92,ENE,68,6.1,6.3,83,0.00,SCT,,0.04,WeatherDisplay:10.37,2013-03-06 03:34:00,
2013-03-05 22:39:00,26.1,21.9,29.92,East,90,6.1,7.3,84,0.00,SCT,,0.04,WeatherDisplay:10.37,2013-03-06 03:39:00,
2013-03-05 22:44:00,26.1,21.9,29.92,ESE,112,6.0,6.9,84,0.00,SCT,,0.04,WeatherDisplay:10.37,2013-03-06 03:44:00,
2013-03-05 22:49:00,25.9,21.7,29.92,ESE,112,6.1,6.1,84,0.00,SCT,,0.04,WeatherDisplay:10.37,2013-03-06 03:49:00,
2013-03-05 22:54:00,25.7,21.5,29.93,ESE,112,6.4,6.9,84,0.00,SCT,,0.04,WeatherDisplay:10.37,2013-03-06 03:54:00,
2013-03-05 22:59:00,25.7,21.5,29.93,ESE,112,6.7,8.1,84,0.00,SCT,,0.04,WeatherDisplay:10.37,2013-03-06 03:59:00,
2013-03-05 23:04:00,25.7,21.8,29.92,ESE,112,5.3,5.8,85,0.00,SCT,,0.04,WeatherDisplay:10.37,2013-03-06 04:04:00,
2013-03-05 23:09:00,25.7,21.8,29.92,ESE,112,5.3,5.8,85,0.00,SCT,,0.04,WeatherDisplay:10.37,2013-03-06 04:09:00,
2013-03-05 23:14:00,25.5,21.6,29.92,ESE,112,6.2,8.1,85,0.00,SCT,,0.04,WeatherDisplay:10.37,2013-03-06 04:14:00,
2013-03-05 23:19:00,25.3,21.4,29.92,ESE,112,8.0,9.2,85,0.00,SCT,,0.04,WeatherDisplay:10.37,2013-03-06 04:19:00,
2013-03-05 23:24:00,25.3,21.4,29.92,ESE,112,7.5,9.2,85,0.00,SCT,,0.04,WeatherDisplay:10.37,2013-03-06 04:24:00,
2013-03-05 23:29:00,25.3,21.7,29.92,ESE,112,8.8,10.4,86,0.00,SCT,,0.04,WeatherDisplay:10.37,2013-03-06 04:29:00,
2013-03-05 23:34:00,25.3,21.7,29.92,ESE,112,8.1,9.2,86,0.00,SCT,,0.04,WeatherDisplay:10.37,2013-03-06 04:34:00,
2013-03-05 23:39:00,25.2,21.6,29.91,WNW,292,6.3,8.1,86,0.00,SCT,,0.04,WeatherDisplay:10.37,2013-03-06 04:39:00,
2013-03-05 23:44:00,25.0,21.4,29.91,ESE,112,7.6,8.1,86,0.00,SCT,,0.04,WeatherDisplay:10.37,2013-03-06 04:44:00,
2013-03-05 23:49:00,25.0,21.4,29.91,ESE,112,8.1,9.2,86,0.00,SCT,,0.04,WeatherDisplay:10.37,2013-03-06 04:49:00,
2013-03-05 23:54:00,24.8,21.2,29.92,ESE,112,7.0,8.1,86,0.00,SCT,,0.04,WeatherDisplay:10.37,2013-03-06 04:54:00,
2013-03-05 23:59:00,24.8,21.2,29.92,ESE,112,5.7,8.1,86,0.00,SCT,,0.04,WeatherDisplay:10.37,2013-03-06 04:59:00,